Regional Weather Roundup
Issued by NWS Grand Forks, ND

Home | Current Version | Previous Version | Graphics & Text | Print | Product List | Glossary On
Versions: 1 2 3 4 5 6 7 8 9 10 11 12 13 14 15 16 17 18 19 20 21 22 23 24 25 26 27 28 29 30 31 32 33 34 35 36 37 38 39 40 41 42 43 44 45 46 47 48 49 50
000
ASUS43 KFGF 110931
RWRFGF
PRAIRIE TO PINES  WEATHER ROUNDUP
NATIONAL WEATHER SERVICE EASTERN NORTH DAKOTA/GRAND FORKS ND
300 AM CST THU FEB 11 2016

 **SATELLITE DATA USED TO AUGMENT SKY COVER AT AUTOMATED STATIONS**
 *****  WEATHER ACROSS EASTERN NORTH DAKOTA  *****

CITY           SKY/WX    TMP DP  RH WIND       PRES   REMARKS
GRAND FORKS    PTCLDY     2  -4  76 CALM      30.28F
GRAND FRKS AFB CLOUDY    -2  -7  79 W3        30.28S
DEVILS LAKE    FLURRIES   0  -6  78 CALM      30.23S
FARGO          CLOUDY     1  -5  75 CALM      30.28S
WAHPETON ARPT  MOSUNNY   -4  -9  77 W8        30.29S WCI -19
$$

 ***** WEATHER ACROSS CENTRAL AND WESTERN NORTH DAKOTA  *****

CITY           SKY/WX    TMP DP  RH WIND       PRES   REMARKS
BISMARCK       CLOUDY    18  12  77 SE5       30.19S WCI  11
MINOT          CLOUDY    15   6  67 CALM      30.15F
JAMESTOWN      CLOUDY     5   1  83 S6        30.21S WCI  -6
MINOT AFB      CLOUDY    12   9  89 SE1       30.16F
GARRISON         N/A     14   9  80 S5        30.14F WCI   6
WILLISTON      CLOUDY    26  22  84 S3        30.10S
DICKINSON      CLOUDY    25  21  85 E7        30.04S WCI  17
HETTINGER      CLOUDY    28  24  85 S6        30.08F WCI  22
$$

 *****  OTHER AIRPORT OBSERVATIONS IN OUR AREA  *****

CITY           SKY/WX    TMP DP  RH WIND       PRES   REMARKS
WALHALLA         N/A     -2  -4  92 CALM      30.28S
GRAFTON AIRPOR FAIR       0  -4  85 CALM      30.31S
VALLEY CITY AR PTSUNNY   -4  -8  84 SW3       30.26R
CANDO          CLOUDY     1   0  92 S5        30.24S WCI  -8
CAVALIER APRT  FAIR       0  -4  85 CALM      30.28S
GWINNER        CLOUDY     5   1  85 N3        30.26S
SHEYENNE NWR     N/A     -7 -13  74 W2        29.95S
ROLLA          FLURRIES   5   1  85 SW3       30.17F
 ***** THE ABOVE OBSERVATIONS ARE NON NWS ARE NOT QUALITY
       CONTROLLED AND MAY MIS-REPORT RAIN FOR SNOW...
$$

  *****  WEATHER ACROSS NORTHERN MINNESOTA  *****

CITY           SKY/WX    TMP DP  RH WIND       PRES   REMARKS
FLAG ISLAND    CLOUDY    -6 -11  77 CALM      30.24S
WARROAD        CLOUDY   -11 -17  77 SW3       30.26S
ROSEAU         CLOUDY   -17 -22  76 CALM      30.27R
HALLOCK        CLOUDY    -8 -11  84 CALM      30.29S
THF RVR FALLS  CLOUDY    -8 -17  65 CALM      30.27F
BAUDETTE       CLOUDY   -17 -24  70 CALM      30.23F
WASKISH        MOCLDY   -20 -26  76 CALM      30.25S
CROOKSTON      CLOUDY     0  -6  78 E5        30.29F WCI -10
STEPHEN NDAWN    N/A     -4  -8  84 CALM        N/A
GREENBUSH NDAW   N/A    -15 -18  84 S3          N/A
$$
  *****  WEATHER ACROSS CENTRAL AND WEST MINNESOTA  *****

CITY           SKY/WX    TMP DP  RH WIND       PRES   REMARKS
FOSSTON        PTCLDY   -15 -22  70 CALM      30.26R
BEMIDJI        CLOUDY   -17 -22  77 CALM      30.24S
PARK RAPIDS    PTCLDY    -8 -14  74 CALM      30.23R
ELBOW LAKE     FAIR       3   0  86 S5        30.26S WCI  -6
WADENA         PTCLDY    -6  -9  84 CALM      30.24R
DETROIT LAKES  CLOUDY     0  -4  85 CALM      30.24S
MOORHEAD       CLOUDY     1  -4  78 CALM      30.29S
FERGUS FALLS   CLOUDY     3  -2  78 E3        30.30S
MORRIS MN      PTCLDY     0  -4  85 CALM      30.26S
STAPLES        PTCLDY    -8 -11  84 CALM      30.24S
$$
  *****  WEATHER ELSEWHERE ACROSS MINNESOTA  *****

CITY           SKY/WX    TMP DP  RH WIND       PRES   REMARKS
DULUTH         CLOUDY    -7 -13  75 NW5       30.20R WCI -18
INTRNTL FALLS  CLOUDY   -13 -19  75 CALM      30.24R
ELY            CLOUDY   -24 -29  76 CALM      30.19F
CLOQUET        PTCLDY   -11 -17  77 CALM      30.23R
WHEATON        PTCLDY     3   0  85 SW3       30.30S
BRAINERD       CLOUDY   -11 -14  86 CALM      30.27R
HIBBING        PTCLDY   -22 -27  77 CALM      30.22S
ALEXANDRIA     CLOUDY     4  -6  63 SE3       30.24R
SAINT CLOUD    PTCLDY     1  -5  75 CALM      30.27R
MINNEAPOLIS    CLOUDY     6  -4  63 CALM      30.29R
$$

  *****  WEATHER ACROSS SOUTH DAKOTA  *****

CITY           SKY/WX    TMP DP  RH WIND       PRES   REMARKS
SIOUX FALLS    CLOUDY    13   5  70 E6        30.24S WCI   4
BROOKINGS      CLOUDY    10   7  85 SE5       30.22R WCI   2
WATERTOWN      CLOUDY    11   5  77 SE3       30.21R
HURON          CLOUDY    16  10  77 CALM      30.25R
SISSETON         N/A      1  -2  87 NW3       30.27R
ABERDEEN       CLOUDY    14   8  77 SE3       30.24S
MITCHELL       CLOUDY    18  12  77 SE5       30.25R WCI  11
PIERRE         MOCLDY    21  18  88 E5        30.17F WCI  15
MOBRIDGE       CLOUDY    19  15  84 E6        30.15S WCI  11
RAPID CITY     MOCLDY    27  26  96 S13       30.06F WCI  16
$$

  *****  SOME WEATHER IN NEARBY STATES *****

CITY           SKY/WX    TMP DP  RH WIND       PRES   REMARKS
GLASGOW MT     LGT SNOW  30  25  81 SE13      30.01F WCI  20
GREAT FALLS MT CLOUDY    48  28  46 W15       30.05R
CHEYENNE WY    CLEAR     36  16  44 W9        30.16F
SCOTTSBLUFF NE MOCLDY    30  24  78 N8        30.11F WCI  22
OMAHA NE       MOCLDY    17  11  77 N10       30.27R WCI   5
DES MOINES IA  CLOUDY    12   1  61 NE12      30.26R WCI  -2
DAVENPORT IA   CLEAR      8   2  76 NW5       30.24R WCI   0
CHICAGO IL     PTCLDY    10   0  63 NW12      30.19R WCI  -5
EAU CLAIRE WI  CLOUDY    -3  -9  75 CALM      30.26R
LA CROSSE WI   CLOUDY     0  -6  76 CALM      30.29R
$$

  *****  SOME NATIONAL WEATHER *****

CITY           SKY/WX    TMP DP  RH WIND       PRES   REMARKS
LA GUARDIA NY  CLOUDY    28  10  46 W20G30    29.78R WCI  15
RALEIGH NC     CLEAR     23   5  46 NW3       30.11R
ATLANTA GA     PTCLDY    30  12  47 W5        30.14F
NEW ORLEANS LA CLEAR     45  38  76 S8        30.21S
OKLAHOMA CITY  PTCLDY    48  30  49 N7        30.00R
ALBUQUERQUE NM PTCLDY    40  21  46 CALM      30.31S
SALT LAKE CITY CLOUDY    29  28  96 W3        30.47S FOG
LOS ANGELES CA PTCLDY    66  35  31 NE7       30.08F
BOISE ID       PTCLDY    28  27  93 CALM      30.41S FOG
SEATTLE WA     PTCLDY    46  44  93 NE5       30.29F
$$

*** WEATHER ACROSS MANITOBA...SASKATCHEWAN AND ONTARIO ***
                ***ONTARIO***

CITY           SKY/WX    TMP DP  RH WIND       PRES   REMARKS
GERALDTON      CLEAR    -22 -27  76 W5        30.07S WCI -36
THUNDER BAY    CLEAR    -18 -24  76 SW5       30.23S WCI -31
SIOUX LOOKOUT  FLURRIES -11 -15  84 CALM      30.16S
TORONTO        MOCLDY     7  -4  61 NW16G24   29.86R WCI -11
BIG TROUT LK   PTCLDY   -17 -22  76 W9        30.02F WCI -36
PICKLE LAKE    NOT AVBL
DRYDEN         CLOUDY    -9 -13  84 W8        30.17S WCI -26
KENORA         CLOUDY    -4  -9  77 W5        30.20S WCI -15
$$
                *** MANITOBA***

CITY           SKY/WX    TMP DP  RH WIND       PRES   REMARKS
BRANDON        FLURRIES   3   0  85 W5        30.21F WCI  -6
DAUPHIN        FLURRIES   7   1  78 N6        30.25S WCI  -3
ISLAND LAKE    CLEAR    -18 -24  76 NW3       30.14F
PILOT MOUND      N/A      3   0  85 SW6         N/A  WCI  -8
THE PAS        CLEAR     -9 -15  77 NW7       30.30S WCI -24
THOMPSON       CLEAR    -18 -24  76 NW7       30.19F WCI -35
WINNIPEG       MOCLDY    -2  -8  78 CALM      30.28S
LYNN LAKE      CLEAR    -20 -24  83 NW9       30.22S WCI -40
CHURCHILL      CRYSTALS -22 -29  69 N26G35    30.08F BLWGSNOWWCI -54
GILLAM         CLEAR    -24 -29  76 NW9       30.13S WCI -45
$$
                ***SASKATCHEWAN***

CITY           SKY/WX    TMP DP  RH WIND       PRES   REMARKS
ESTEVAN        FLURRIES  14  10  85 E7        30.12F WCI   4
KINDERSLEY     FLURRIES  19  16  86 E15       30.06F WCI   5
LLOYDMINSTER   FLURRIES  12   9  85 E12       30.12S WCI  -2
PRINCE ALBERT  FLURRIES   7   1  78 E7        30.26S WCI  -5
REGINA         CLOUDY    16  12  86 E5        30.13S WCI   9
YORKTON        FLURRIES  10   7  85 N9        30.18S WCI  -2
N. BATTLEFORD  FLURRIES  10   7  85 E13       30.20R WCI  -5
LA RONGE       PTCLDY    -6 -11  77 CALM      30.31F
SASKATOON      CLOUDY    10   7  85 NE9       30.19F WCI  -2
SWIFT CURRENT  LGT SNOW  21  21 100 E14       29.99F WCI   8
$$
NOTE: THESE ARE AUTOMATED STATIONS WITH LIMITED QUALITY CONTROL
      "FAIR" INDICATES FEW OR NO CLOUDS BELOW 12,000 FEET WITH NO
      SIGNIFICANT WEATHER AND/OR OBSTRUCTIONS TO VISIBILITY.
      SKY/WX - SKY CONDITION AND SIGNIFICANT WEATHER.
      TMP - AIR TEMPERATURE.    DP   - DEWPOINT TEMPERATURE.
      RH  - RELATIVE HUMIDITY.  PRES - PRESSURE.
      HX  - HEAT INDEX.         WCI  - WIND CHILL INDEX.
$



USA.gov is the U.S. government's official web portal to all federal, state and local government web resources and services.